Temperature
26 25 25 25 23 22 24 26 26 26 25 25 25 24 24 23 21 19 20 20 21 20 20 20 20 19 19 19 19 19 19 19 19 19 19 19 19 18 18 18 18 18 18 18 18 18 18 18 18
26 26 25 25 22 23 25 26 26 26 26 25 25 24 23 21 20 19 19 20 21 21 20 20 20 20 19 19 19 19 19 19 19 19 19 19 19 18 18 18 18 18 18 18 18 18 18 18 18
27 26 25 23 23 23 25 26 27 27 27 26 25 24 23 21 20 20 20 21 21 21 20 20 20 20 19 19 19 19 19 19 19 18 18 18 18 18 18 18 18 18 18 18 18 18 18 18 17
27 26 25 23 25 26 27 27 27 27 26 26 25 24 23 22 22 21 21 21 21 21 20 20 20 20 19 19 19 19 19 19 18 18 18 18 18 18 18 18 18 18 18 18 18 18 18 17 17
28 26 23 23 26 27 28 28 28 27 26 25 24 23 22 22 22 22 21 21 21 21 20 20 20 20 20 19 19 19 19 19 18 18 18 18 18 18 18 18 18 18 18 18 18 18 18 17 17
28 24 23 24 26 28 28 28 27 26 25 24 24 23 22 22 22 21 21 21 22 21 20 20 20 20 20 19 19 19 19 19 18 18 18 18 18 18 18 18 18 18 18 18 18 18 17 17 17
27 23 24 25 26 27 28 28 27 26 25 25 24 23 22 21 22 21 21 22 21 21 21 20 20 20 20 19 19 19 19 19 18 18 18 18 18 18 18 18 18 18 18 18 18 18 17 17 17
28 23 24 25 26 27 28 28 27 27 26 25 25 23 22 21 21 21 21 21 21 21 21 21 20 20 20 19 19 19 19 19 19 18 18 18 18 18 18 18 18 18 18 18 18 18 17 17 17
29 23 24 26 27 28 28 28 28 27 26 26 25 25 23 22 21 21 21 21 21 21 21 21 20 20 20 20 19 19 19 19 19 18 18 18 18 18 18 18 18 18 18 18 18 18 17 17 17
28 24 26 27 28 28 29 28 28 27 25 25 25 24 23 22 22 21 21 21 21 20 20 20 20 20 20 20 19 19 19 19 19 18 18 18 18 18 18 18 18 18 18 18 18 18 18 18 17
28 27 28 29 30 30 29 28 28 26 25 25 24 24 23 23 22 22 22 21 21 21 20 20 20 20 20 20 19 19 19 19 19 18 18 18 18 18 18 18 18 18 18 18 18 18 18 18 18
29 29 30 31 31 31 30 29 28 27 26 26 26 25 23 23 22 22 22 22 21 21 21 20 20 20 20 19 19 19 19 19 19 18 18 18 18 18 18 18 18 18 18 18 18 18 18 18 18
29 30 31 31 31 31 30 29 28 27 27 26 25 24 24 23 23 23 22 22 21 21 21 20 20 20 20 19 19 19 19 19 19 18 18 18 18 18 18 18 18 18 18 18 18 18 18 18 18
30 30 30 31 31 31 29 28 28 27 27 25 24 24 24 24 23 23 22 22 22 21 21 20 20 20 19 19 19 19 19 19 19 18 18 18 18 18 18 18 18 18 18 18 17 17 18 18 17
30 28 28 30 30 30 29 28 27 27 26 25 24 24 24 24 24 23 23 22 22 22 21 20 20 20 19 19 19 19 19 19 19 18 18 18 18 18 18 18 18 18 17 17 17 17 17 17 17
28 27 27 29 30 30 28 27 27 27 26 25 24 24 24 24 24 23 23 23 22 22 21 20 20 20 20 19 19 19 19 19 19 18 18 18 18 18 18 18 18 18 18 17 17 17 17 17 17
26 26 27 28 30 30 28 27 27 27 26 25 25 24 24 24 24 23 23 23 22 22 21 21 20 20 20 19 19 19 19 19 18 18 18 18 18 18 18 18 18 18 18 17 17 17 17 17 17
26 27 28 28 30 29 28 27 27 27 27 26 25 25 24 24 24 24 23 23 22 22 21 21 20 20 20 19 19 19 18 18 18 18 18 18 18 18 18 18 18 18 18 17 17 17 17 17 17
27 28 28 29 30 29 28 27 27 27 27 26 25 24 24 24 24 24 23 23 22 22 21 21 20 20 20 19 19 19 18 18 18 18 18 18 18 18 18 18 18 17 18 18 17 17 17 17 17
28 28 28 28 30 29 28 27 27 27 26 26 25 24 24 24 23 23 23 23 22 22 21 21 21 20 20 20 19 19 19 18 18 18 18 18 18 18 18 18 18 18 18 17 17 17 17 17 17
28 28 28 28 29 28 27 26 25 26 26 26 26 25 24 24 23 23 23 23 22 22 21 21 21 20 20 19 19 19 18 18 18 18 18 18 18 18 18 18 18 18 18 17 17 17 17 17 17
27 29 29 29 26 25 26 24 25 24 24 24 25 25 24 24 24 23 23 23 22 22 21 21 20 20 20 19 19 19 19 19 19 18 18 18 18 18 18 18 18 18 17 17 17 17 17 17 17
29 29 28 28 26 24 24 24 23 24 24 24 24 24 24 24 24 23 23 23 22 22 21 21 20 20 19 19 19 19 19 19 18 18 18 18 18 18 18 18 18 17 17 17 17 17 17 17 17
29 27 25 22 22 23 24 24 23 22 24 24 24 24 24 24 24 23 23 22 22 21 21 20 20 20 19 19 19 19 19 18 18 18 18 18 18 18 18 18 17 17 17 17 17 17 17 17 17
27 23 22 23 21 22 23 24 23 24 24 24 24 24 24 24 23 23 22 22 21 21 21 20 20 20 19 19 19 19 18 18 18 18 18 18 18 18 18 18 17 17 17 17 17 17 17 17 17
26 23 22 23 23 22 23 23 23 24 25 25 24 24 23 23 23 23 22 22 22 21 21 20 20 20 19 19 19 19 18 18 18 18 18 18 18 18 18 17 17 17 17 17 17 17 17 17 17
27 24 22 21 22 22 22 24 24 24 24 24 23 23 22 22 23 23 22 22 22 21 21 20 20 20 19 19 19 18 18 18 18 18 18 18 18 18 17 17 17 17 17 17 17 17 17 17 17
27 25 21 21 22 22 23 23 22 23 23 23 22 22 22 22 23 22 22 22 22 22 21 20 20 19 19 19 18 18 18 18 18 18 18 18 18 18 17 17 17 17 17 17 17 17 17 16 16
27 26 22 19 20 21 22 22 24 23 23 22 22 22 23 23 23 23 22 22 22 21 21 20 20 19 19 19 19 18 18 18 18 18 18 18 18 17 17 17 17 17 17 17 17 16 16 16 16
26 25 22 22 22 20 20 22 24 23 23 23 22 23 23 23 23 23 22 22 21 21 21 20 19 19 19 19 18 18 18 18 18 18 18 17 17 17 17 17 17 17 17 17 16 16 16 16 16
Wind_Speed
4 3 2 1 5 6 8 7 9 10 7 9 12 11 10 7 6 8 6 15 16 12 15 17 18 17 17 17 16 16 16 16 16 16 16 16 16 16 15 15 15 16 16 16 16 16 17 17 17
2 1 1 4 6 6 6 8 12 12 12 14 13 13 10 9 10 12 9 14 16 15 15 16 18 18 17 17 16 16 16 16 16 15 15 15 15 15 15 15 15 15 15 16 15 16 15 15 15
2 1 3 4 4 6 7 8 12 12 11 9 7 8 7 9 12 9 12 17 14 13 15 18 18 18 17 17 16 16 15 15 15 15 14 15 15 15 15 14 15 14 15 15 15 15 14 14 14
1 3 4 5 5 6 9 10 12 13 9 9 9 8 6 8 9 13 19 18 16 12 15 18 18 18 17 16 16 16 15 14 14 14 14 14 14 14 14 14 14 14 14 14 13 13 13 13 13
3 4 5 4 4 5 9 12 11 12 6 9 11 9 6 6 20 22 20 19 17 12 14 17 18 18 17 16 16 15 15 15 14 14 14 14 14 14 13 14 14 14 13 13 12 12 12 12 12
4 5 5 2 3 5 6 10 13 15 14 13 12 9 5 13 21 21 19 17 16 14 14 17 18 18 17 16 16 15 15 15 14 14 14 14 14 14 13 13 13 13 13 12 11 11 11 11 11
4 4 2 2 4 5 7 9 11 13 12 9 11 8 7 14 18 19 18 16 15 15 13 13 16 16 17 16 15 15 15 14 14 14 14 14 14 13 13 13 13 12 12 11 10 10 9 9 9
4 5 2 1 4 5 6 7 10 14 10 12 9 9 10 15 17 18 16 15 13 11 10 11 13 14 14 14 15 15 14 14 14 14 14 14 13 13 12 12 12 12 11 10 9 9 9 8 7
4 4 2 3 5 4 8 9 5 8 10 7 4 7 14 20 22 19 16 13 12 12 9 10 11 12 13 13 14 14 14 14 14 14 14 13 11 11 11 11 11 11 10 9 8 8 7 6 5
5 4 6 6 6 7 9 10 8 7 7 5 9 11 16 21 22 21 19 17 14 14 12 10 10 11 12 12 12 11 11 12 12 12 12 11 11 10 9 10 10 10 9 8 7 6 5 3 3
4 5 4 3 5 7 8 8 6 12 7 11 18 19 18 20 20 20 19 18 17 15 14 11 10 11 10 8 10 9 9 10 10 11 11 11 9 8 8 7 7 7 7 5 4 4 2 2 1
1 3 4 3 3 6 7 6 6 7 10 15 20 22 18 19 18 19 18 17 16 15 14 12 11 10 10 10 9 8 7 8 8 10 12 10 7 7 7 6 6 5 4 3 3 2 2 2 2
0 2 2 1 3 5 7 8 7 5 12 16 17 18 17 17 16 15 15 15 15 14 13 13 12 10 9 8 7 8 7 8 9 11 12 12 8 6 6 5 5 5 5 5 4 4 3 2 2
4 3 4 2 1 3 7 5 6 7 16 18 18 17 16 16 16 14 14 13 14 14 13 12 12 11 10 8 6 7 9 10 9 10 12 13 11 9 7 5 5 5 6 5 5 4 3 2 2
5 5 7 4 1 2 7 3 6 12 17 18 18 17 16 15 15 16 16 15 14 14 13 12 13 11 11 9 8 9 9 10 8 9 12 12 12 11 8 5 4 6 7 6 4 3 2 1 1
6 4 3 7 2 3 7 4 5 14 19 17 16 16 14 13 15 15 15 14 13 14 13 13 13 11 10 8 7 7 8 9 9 10 11 12 12 12 9 5 4 7 6 5 2 1 1 1 1
5 2 4 7 4 3 5 5 7 12 17 16 15 14 14 12 12 13 14 14 14 15 14 12 10 10 9 8 6 7 7 7 9 10 10 11 12 12 10 6 6 7 5 3 3 2 2 2 1
6 4 4 4 4 3 5 5 8 10 14 14 13 13 13 13 13 13 13 14 13 13 12 11 10 9 8 5 5 4 4 4 6 8 10 11 11 12 10 6 6 6 3 2 2 2 2 2 2
6 4 5 6 3 3 5 5 7 10 11 11 11 12 12 11 10 11 13 13 13 11 12 11 10 9 8 5 4 4 4 4 4 5 10 11 11 11 9 5 5 5 4 4 4 3 2 1 2
5 4 5 5 2 3 3 2 4 7 11 13 14 13 13 11 8 10 11 12 12 12 11 11 11 10 9 6 5 3 4 3 4 4 7 10 10 10 9 6 5 5 4 4 4 3 2 2 2
4 3 4 4 4 6 5 4 2 1 4 7 11 12 13 16 15 13 12 12 12 13 13 12 10 10 9 8 5 3 3 2 1 3 3 5 9 9 8 8 6 5 5 4 4 4 4 3 2
4 4 2 3 4 3 3 0 5 2 3 6 8 9 10 11 12 12 12 12 13 12 12 11 10 9 9 8 7 7 6 5 5 4 4 4 7 8 9 9 7 5 4 5 5 5 4 4 3
5 3 2 2 3 4 4 3 5 1 4 6 8 10 11 12 14 13 12 12 11 11 10 9 9 9 8 8 9 8 5 4 3 3 4 4 3 5 8 8 7 5 5 5 5 4 4 4 4
2 6 8 7 6 2 3 3 4 4 7 7 8 9 11 11 11 10 9 9 8 8 8 9 9 8 8 8 8 7 7 6 5 5 5 4 3 3 5 7 6 6 5 5 5 5 5 4 5
5 7 5 6 5 5 4 2 6 7 6 9 10 10 10 10 9 10 10 9 8 9 9 9 9 8 8 8 7 7 7 7 7 6 6 5 3 3 5 5 4 4 5 5 5 5 5 5 5
4 10 8 5 4 5 5 1 6 4 3 6 7 9 10 9 7 8 9 10 9 9 9 9 9 7 8 8 7 6 6 5 4 5 5 5 5 5 5 5 4 5 5 5 5 4 5 5 5
6 6 10 7 2 1 4 4 5 2 4 6 8 9 9 9 8 7 6 8 9 9 9 10 9 8 8 8 7 5 5 5 5 4 4 4 4 4 4 4 4 4 4 4 4 4 4 4 5
9 9 7 5 4 2 4 3 5 6 6 6 7 8 7 6 7 7 6 5 6 9 8 8 9 9 7 7 6 6 5 5 4 4 4 4 3 3 3 3 3 3 3 2 3 3 3 3 3
5 5 6 6 6 6 3 7 7 11 11 10 10 10 9 9 8 8 7 6 6 7 8 8 7 8 8 8 6 5 4 4 4 4 4 3 3 3 3 3 3 3 2 2 2 2 2 3 3
8 9 9 6 4 6 5 7 5 8 9 10 10 10 9 9 9 9 9 8 7 7 8 8 7 8 8 7 6 5 4 4 4 3 3 3 3 3 3 2 2 2 2 2 2 2 2 2 2
Wind_Direction
277 244 162 81 55 61 87 88 90 77 63 66 76 84 85 69 108 131 135 136 133 133 133 131 127 124 121 118 115 112 109 107 105 104 103 103 102 104 106 107 106 106 106 105 104 105 106 108 109
282 227 99 50 76 79 78 92 92 100 119 105 85 84 77 72 91 116 125 137 134 133 131 131 129 127 124 122 120 116 113 111 110 109 108 107 106 107 108 110 109 109 108 108 107 107 107 109 110
232 176 80 61 91 116 109 102 105 106 110 101 95 76 79 111 120 128 139 140 132 129 130 133 132 129 127 125 123 119 117 116 114 112 111 111 109 108 109 111 111 111 110 110 110 109 109 108 107
118 64 47 69 106 132 127 128 120 109 87 79 93 76 78 120 126 135 140 138 131 128 132 135 133 132 130 128 127 124 121 119 117 116 114 113 112 110 111 113 113 112 112 112 112 112 109 106 103
86 74 54 58 104 119 127 133 125 111 99 95 96 96 79 93 124 136 141 138 134 133 136 137 136 135 134 133 131 128 126 123 121 120 118 116 115 113 113 113 114 114 114 115 115 113 110 106 102
57 66 63 66 95 111 125 126 111 106 114 111 108 107 102 129 134 142 142 140 138 139 139 140 140 139 138 136 133 131 129 127 126 123 121 120 119 118 118 117 117 117 116 116 115 113 110 105 100
105 93 129 160 125 116 128 127 121 129 133 136 131 108 123 142 144 143 140 138 139 141 141 141 144 143 142 140 137 135 134 132 130 128 127 126 124 124 123 122 121 121 121 120 117 115 111 104 98
131 103 96 143 137 139 138 126 137 136 132 135 134 133 154 159 145 138 136 135 138 141 144 144 144 144 143 143 142 141 140 138 136 134 132 131 129 128 128 126 127 127 127 124 120 117 111 104 96
103 83 153 183 150 150 134 119 122 109 124 150 141 140 152 145 139 136 135 137 144 150 155 153 150 149 147 148 148 147 146 145 142 140 138 133 129 130 133 135 135 133 132 130 127 121 114 106 96
111 136 205 199 164 150 143 134 134 110 112 103 103 120 137 141 145 147 151 155 158 162 168 166 160 157 158 157 149 149 148 147 145 146 142 141 141 143 142 143 142 141 139 138 135 130 122 105 76
147 175 199 217 166 143 137 142 127 127 144 155 149 151 152 149 153 155 159 163 165 167 169 169 166 163 165 153 153 155 151 154 156 158 157 154 150 149 145 148 149 151 150 146 146 142 140 161 133
194 248 199 201 153 134 142 138 126 148 172 165 157 157 158 158 160 161 163 166 165 166 169 168 166 163 165 156 163 165 162 165 168 171 166 158 153 153 156 161 164 167 167 168 167 162 178 207 171
253 293 298 210 176 153 132 134 141 148 145 148 150 154 159 161 162 163 163 163 162 167 168 168 167 164 162 159 170 169 171 173 173 171 174 167 161 163 166 171 176 183 181 177 174 175 180 180 164
291 320 319 301 216 142 126 135 132 155 143 148 155 159 163 164 161 159 161 163 164 166 166 166 166 166 163 167 171 170 177 175 171 174 179 175 170 170 170 174 183 193 194 186 180 180 175 169 154
338 0 333 302 250 160 107 77 158 156 147 153 162 165 165 168 165 167 169 166 165 162 160 163 166 163 165 168 170 169 176 172 171 180 184 180 176 172 170 171 181 195 198 188 176 172 149 156 148
357 16 315 288 245 181 116 167 185 154 153 158 166 169 168 171 172 171 167 162 160 156 157 165 168 163 165 167 161 162 169 169 176 183 184 182 178 172 167 170 183 191 181 168 158 152 140 130 144
358 309 270 289 250 168 128 173 180 164 158 163 167 169 169 167 170 170 166 161 160 159 160 164 161 163 164 163 153 153 161 168 175 178 184 183 176 172 169 174 182 177 165 168 181 161 156 163 195
275 291 290 268 261 133 127 161 168 167 161 163 167 168 166 169 175 168 163 159 158 158 159 161 160 163 159 152 138 134 147 163 175 179 181 181 178 175 170 172 174 169 156 170 170 163 169 179 191
253 289 291 270 252 118 132 147 168 169 164 161 161 164 164 170 173 162 160 159 157 157 158 162 161 166 159 155 153 152 165 173 178 185 183 181 179 176 171 169 172 170 170 183 177 160 170 194 146
274 303 308 301 318 94 114 152 176 173 173 170 165 166 163 157 157 161 160 162 163 165 166 166 166 166 167 165 162 162 163 176 186 188 185 183 180 180 177 168 173 174 175 184 181 160 164 204 162
297 294 298 298 351 33 75 5 303 228 149 164 167 167 165 166 167 170 170 170 167 171 172 173 171 170 172 166 153 139 124 116 149 185 190 194 188 187 182 178 178 184 179 187 192 178 174 196 217
286 284 330 19 49 328 74 246 280 211 159 173 173 168 165 165 164 172 174 173 176 178 174 169 172 172 174 168 169 166 170 182 198 192 193 198 192 188 186 180 182 189 187 191 200 191 185 178 206
237 275 8 34 80 13 12 119 281 125 164 190 182 173 168 165 167 173 175 176 175 172 169 168 167 172 174 175 179 176 179 187 181 174 185 199 202 197 192 189 189 192 195 200 203 196 192 187 197
213 36 26 40 62 6 277 141 267 227 200 184 182 176 166 161 162 163 164 159 162 163 164 164 165 172 175 177 179 179 182 177 169 178 187 198 206 207 203 197 196 199 200 204 206 205 203 204 204
80 80 27 360 9 262 283 142 246 250 203 170 171 173 163 154 153 154 158 161 164 164 166 167 169 174 175 175 178 183 184 181 180 184 188 190 197 206 213 203 203 206 204 204 199 204 213 208 207
158 135 155 193 223 282 339 233 259 249 178 148 149 151 142 141 146 157 166 168 168 169 169 171 174 174 175 176 181 181 180 182 185 184 185 193 200 206 207 200 202 207 205 212 206 213 221 215 216
155 174 171 144 173 305 295 292 327 45 103 119 130 130 140 150 152 156 164 168 168 169 172 174 172 171 178 179 175 175 177 179 184 188 189 196 200 202 195 194 201 205 204 207 204 216 227 221 220
163 155 99 117 150 232 284 254 216 200 175 147 140 141 152 151 151 146 153 165 166 166 166 168 170 175 175 175 174 177 180 184 182 176 187 190 191 187 177 188 195 204 206 196 193 210 217 209 224
174 142 123 132 152 153 225 267 229 191 173 157 159 160 163 164 166 159 159 167 164 157 156 162 167 164 168 171 169 169 177 178 173 177 190 188 178 176 173 182 188 192 193 187 186 207 208 216 236
176 176 149 156 212 162 169 264 280 173 165 156 158 165 166 165 164 159 157 158 155 156 159 164 168 164 164 163 161 166 168 165 165 173 182 177 168 167 165 156 156 167 168 170 176 205 218 218 232
Height
1508 1507 1506 1507 1510 1521 1524 1517 1511 1511 1513 1514 1513 1514 1518 1523 1529 1540 1538 1539 1542 1543 1545 1547 1548 1548 1549 1550 1551 1551 1552 1552 1553 1553 1554 1554 1555 1556 1556 1557 1558 1559 1559 1560 1560 1561 1562 1562 1563
1509 1507 1508 1509 1520 1536 1529 1516 1514 1514 1516 1515 1517 1518 1521 1527 1529 1533 1536 1540 1543 1544 1546 1547 1549 1550 1551 1551 1552 1553 1553 1554 1555 1555 1556 1556 1557 1558 1558 1559 1560 1560 1561 1562 1563 1563 1564 1565 1566
1509 1509 1511 1514 1525 1533 1528 1517 1515 1516 1516 1515 1519 1522 1525 1530 1532 1535 1537 1541 1543 1545 1547 1549 1550 1551 1552 1553 1554 1554 1555 1555 1556 1557 1557 1558 1559 1559 1560 1561 1561 1562 1563 1564 1565 1565 1566 1567 1568
1510 1511 1513 1520 1525 1519 1515 1514 1514 1516 1518 1518 1519 1525 1529 1533 1533 1536 1539 1542 1544 1546 1548 1550 1551 1552 1553 1554 1555 1556 1556 1557 1558 1558 1559 1560 1560 1561 1562 1562 1563 1564 1565 1566 1567 1568 1569 1570 1570
1510 1512 1520 1528 1522 1515 1511 1512 1512 1515 1518 1521 1521 1527 1532 1534 1535 1537 1540 1543 1545 1547 1549 1551 1552 1553 1554 1555 1556 1557 1558 1558 1559 1560 1560 1561 1562 1563 1563 1564 1565 1566 1567 1567 1569 1570 1571 1572 1573
1512 1514 1531 1535 1524 1515 1513 1513 1514 1517 1521 1523 1524 1528 1534 1536 1536 1539 1542 1544 1546 1548 1550 1551 1553 1554 1555 1556 1557 1558 1559 1560 1561 1561 1562 1563 1564 1564 1565 1566 1567 1568 1569 1570 1571 1572 1573 1574 1575
1512 1519 1529 1528 1524 1519 1515 1514 1514 1517 1521 1523 1524 1529 1535 1537 1538 1540 1543 1545 1547 1549 1550 1552 1553 1555 1556 1557 1558 1559 1560 1561 1562 1563 1563 1564 1565 1566 1567 1568 1569 1569 1571 1572 1573 1574 1575 1576 1578
1512 1519 1527 1526 1523 1520 1514 1513 1514 1515 1519 1523 1524 1527 1533 1536 1539 1541 1544 1546 1548 1550 1551 1553 1554 1555 1557 1558 1559 1560 1561 1562 1563 1564 1565 1566 1567 1568 1569 1569 1570 1571 1572 1574 1575 1576 1577 1578 1580
1512 1523 1530 1523 1519 1516 1512 1513 1516 1517 1519 1522 1523 1525 1528 1534 1538 1541 1544 1546 1548 1550 1551 1553 1554 1556 1557 1559 1560 1561 1562 1563 1564 1565 1566 1567 1568 1569 1570 1571 1572 1573 1574 1575 1577 1578 1579 1580 1581
1511 1524 1520 1510 1508 1509 1510 1510 1513 1517 1519 1522 1524 1527 1531 1534 1536 1538 1541 1544 1546 1549 1551 1553 1555 1556 1558 1559 1560 1561 1563 1564 1565 1566 1567 1568 1569 1571 1572 1573 1574 1575 1576 1577 1578 1580 1581 1582 1583
1508 1513 1508 1506 1505 1506 1508 1510 1511 1515 1520 1520 1521 1525 1529 1533 1535 1537 1540 1542 1545 1548 1551 1553 1555 1557 1558 1560 1561 1562 1564 1565 1566 1567 1568 1569 1570 1572 1573 1574 1575 1576 1577 1578 1580 1581 1582 1583 1584
1507 1505 1504 1504 1504 1505 1506 1509 1511 1512 1515 1516 1517 1520 1525 1530 1533 1535 1538 1542 1544 1547 1550 1552 1554 1556 1559 1560 1562 1563 1564 1565 1567 1568 1569 1570 1571 1572 1574 1575 1576 1577 1578 1579 1581 1582 1583 1584 1585
1506 1505 1503 1503 1503 1503 1505 1507 1510 1512 1514 1517 1519 1522 1524 1528 1532 1535 1539 1542 1543 1545 1548 1551 1554 1556 1558 1560 1562 1563 1564 1566 1567 1568 1569 1571 1572 1573 1575 1576 1577 1578 1579 1581 1582 1583 1584 1585 1586
1506 1504 1503 1502 1502 1503 1504 1508 1509 1513 1515 1518 1520 1522 1525 1528 1531 1535 1538 1541 1542 1544 1547 1551 1553 1555 1557 1559 1561 1563 1564 1566 1567 1568 1569 1571 1572 1574 1575 1576 1577 1579 1580 1581 1582 1583 1584 1585 1586
1506 1506 1505 1502 1501 1503 1504 1512 1510 1511 1514 1518 1521 1523 1526 1529 1531 1533 1536 1538 1541 1544 1547 1550 1552 1554 1556 1559 1561 1563 1564 1566 1567 1569 1570 1571 1573 1574 1575 1576 1577 1579 1580 1581 1582 1583 1584 1585 1586
1508 1513 1517 1504 1500 1501 1508 1521 1511 1512 1513 1517 1521 1523 1526 1528 1530 1532 1535 1537 1541 1543 1546 1549 1551 1553 1556 1558 1560 1562 1564 1565 1566 1568 1570 1571 1572 1574 1575 1576 1577 1578 1580 1581 1582 1583 1584 1584 1585
1520 1526 1521 1510 1498 1500 1506 1515 1510 1512 1513 1516 1519 1522 1525 1527 1530 1532 1534 1537 1540 1542 1545 1547 1550 1553 1555 1557 1559 1561 1563 1564 1566 1567 1569 1571 1572 1573 1574 1575 1577 1578 1579 1580 1581 1582 1583 1584 1585
1530 1524 1520 1514 1501 1501 1507 1510 1509 1511 1512 1515 1518 1521 1523 1525 1527 1530 1533 1536 1539 1542 1544 1547 1549 1551 1554 1556 1558 1560 1561 1563 1565 1566 1568 1569 1571 1572 1573 1574 1576 1577 1578 1579 1580 1581 1582 1583 1584
1517 1519 1519 1510 1499 1503 1508 1510 1509 1509 1512 1514 1517 1519 1522 1525 1528 1530 1533 1536 1539 1541 1543 1545 1547 1550 1552 1554 1556 1558 1560 1561 1563 1565 1566 1568 1569 1570 1572 1573 1574 1575 1577 1578 1579 1580 1581 1582 1583
1513 1518 1517 1508 1499 1504 1510 1512 1509 1509 1510 1511 1513 1516 1519 1523 1527 1530 1532 1535 1537 1539 1542 1544 1546 1548 1550 1552 1555 1557 1559 1560 1562 1564 1565 1566 1567 1568 1570 1571 1572 1574 1575 1576 1577 1578 1579 1580 1581
1512 1515 1514 1512 1505 1506 1512 1522 1515 1511 1511 1512 1513 1515 1517 1520 1524 1528 1531 1533 1535 1538 1540 1542 1545 1547 1549 1551 1553 1555 1557 1559 1560 1561 1563 1564 1565 1566 1567 1569 1570 1572 1573 1574 1575 1576 1577 1578 1579
1517 1506 1506 1509 1520 1528 1521 1542 1524 1516 1514 1513 1513 1514 1516 1519 1522 1525 1529 1531 1533 1536 1539 1541 1544 1546 1548 1550 1551 1552 1554 1556 1557 1559 1561 1562 1563 1564 1565 1567 1568 1569 1570 1571 1573 1574 1575 1576 1576
1506 1501 1505 1509 1519 1530 1527 1538 1533 1519 1519 1515 1513 1513 1515 1517 1520 1523 1526 1529 1532 1535 1537 1540 1542 1544 1546 1547 1549 1550 1552 1554 1556 1557 1559 1560 1561 1562 1563 1564 1565 1566 1567 1569 1570 1571 1572 1573 1573
1498 1505 1512 1521 1531 1546 1533 1537 1538 1524 1516 1513 1513 1513 1514 1517 1520 1523 1526 1529 1531 1534 1537 1539 1541 1542 1544 1545 1547 1549 1550 1551 1553 1555 1556 1558 1559 1560 1561 1562 1562 1563 1564 1565 1567 1568 1569 1569 1570
1503 1527 1549 1550 1559 1553 1532 1534 1534 1512 1508 1508 1509 1511 1513 1517 1520 1522 1525 1527 1530 1532 1534 1537 1539 1540 1542 1543 1545 1547 1548 1549 1550 1552 1554 1555 1556 1557 1558 1559 1559 1560 1561 1562 1563 1564 1565 1565 1566
1508 1523 1551 1560 1561 1552 1535 1536 1523 1505 1503 1506 1508 1511 1514 1517 1519 1522 1523 1525 1528 1530 1532 1534 1536 1538 1540 1541 1543 1545 1546 1548 1549 1550 1552 1553 1554 1555 1556 1557 1557 1558 1559 1559 1560 1560 1561 1561 1562
1507 1518 1521 1541 1545 1553 1545 1530 1516 1506 1506 1508 1510 1512 1515 1516 1518 1521 1522 1524 1526 1528 1530 1532 1534 1536 1538 1540 1542 1543 1544 1546 1547 1548 1550 1551 1552 1553 1554 1554 1555 1555 1556 1556 1557 1557 1557 1557 1557
1495 1505 1527 1541 1555 1561 1548 1537 1531 1516 1512 1511 1512 1514 1515 1517 1518 1519 1522 1523 1526 1527 1529 1531 1533 1534 1536 1538 1540 1542 1543 1544 1546 1547 1548 1549 1550 1550 1551 1552 1552 1553 1553 1553 1554 1554 1554 1554 1554
1499 1505 1519 1536 1542 1556 1558 1543 1509 1507 1507 1509 1511 1512 1514 1516 1517 1519 1521 1524 1526 1527 1529 1531 1532 1533 1535 1537 1539 1540 1542 1543 1544 1545 1546 1547 1547 1548 1549 1549 1550 1550 1550 1551 1551 1551 1551 1551 1550
1491 1499 1514 1532 1537 1543 1549 1538 1500 1501 1503 1505 1508 1510 1511 1514 1516 1518 1521 1524 1525 1527 1528 1530 1532 1533 1534 1536 1538 1539 1540 1541 1542 1543 1544 1545 1545 1546 1546 1547 1547 1547 1547 1548 1548 1548 1548 1547 1547